Back to catalog

FENGYUN 1C DEB

AlivePO
NORAD 30945·DEBRIS·🇨🇳 China

Launched May 10, 1999 from Taiyuan Satellite Launch Center

Loading…

Next Passes (next 24 hours)

TLE

FreshSource: Space-Track

Epoch: Sep 12, 2026, 01:38 UTC

1 30945U 99025BAK 26255.06839056  .00001957  00000-0  75010-3 0  9991
2 30945  99.3797 290.3125 0028356 334.2117  81.1611 14.31633723  3233

Track FENGYUN 1C DEB in real time with AllMySat

Download on the App Store